Notices

What's New in latest Release from April 7th, 2021:

- Updated Glossary, including Speed of Maximum Gust, and Total Hourly Precipitation

- Updated national and regional climate services offices contacts and prices information

- Addition of station inventory lists for 1981-2010, 1971-2000, and 1961-1990 Normals.

If you haven't already, please take our survey and provide feedback about our website: https://eccc.sondage-survey.ca/f/LanguageSelection.aspx?s=442ca660-fcf1-47c0-95a9-59707d6fd709

Hourly Data Report for May 17, 2020

TRENTON A
ONTARIO
Current Station Operator: DND

44°07'00.000" N
77°32'00.000" W
86.30 m
6158875
71621
YTR

Download Data

Hourly Data (May 2020)
Hourly Data Report for May 17, 2020
TIME
LST
Temp Definition
°C
Dew Point Definition
°C
Rel Hum Definition
%
Precip. Amount Definition
mm

Wind Dir Definition
10's deg

Wind Spd Definition
km/h
Visibility Definition
km
Stn Press Definition
kPa
Hmdx Definition


Wind Chill Definition


Weather Definition


00:00 5.0 3.1 88   4 8 24.1 101.37     Mainly Clear
01:00 5.5 3.1 85     0 24.1 101.38     Mainly Clear
02:00 4.8 2.7 86     0 24.1 101.39     Mostly Cloudy
03:00 4.3 2.4 87   2 4 24.1 101.42     Mostly Cloudy
04:00 4.7 2.5 86   25 4 24.1 101.42     Mostly Cloudy
05:00 3.9 2.1 88   5 4 24.1 101.44     Mostly Cloudy
06:00 8.2 5.3 82   8 5 24.1 101.46     Mostly Cloudy
07:00 10.5 5.8 73   6 11 24.1 101.49     Mostly Cloudy
08:00 13.6 6.7 63   6 9 24.1 101.49     Mostly Cloudy
09:00 16.2 7.5 56   12 9 24.1 101.45     Mostly Cloudy
10:00 17.4 6.2 48   9 15 24.1 101.38     Mostly Cloudy
11:00 18.1 6.3 46   9 15 24.1 101.36     Mostly Cloudy
12:00 18.3 6.1 45   10 18 24.1 101.29     Mostly Cloudy
13:00 18.9 6.3 44   10 17 24.1 101.25     Cloudy
14:00 19.1 6.9 45   10 13 22.5 101.20     Cloudy
15:00 18.8 6.4 44   7 9 22.5 101.18     Cloudy
16:00 18.6 6.1 44   8 11 22.5 101.12     Cloudy
17:00 18.6 6.4 45   6 15 24.1 101.08     Cloudy
18:00 18.2 6.3 46   6 15 24.1 101.01     Cloudy
19:00 17.3 6.2 48   5 15 24.1 101.04     Cloudy
20:00 16.0 6.5 53   6 9 24.1 101.07     Rain
21:00 16.7 5.6 48   7 8 24.1 101.13     Cloudy
22:00 14.5 7.3 62   4 13 24.1 101.13     Rain
23:00 13.0 8.4 74   6 11 12.9 101.16     Rain

Notes on Data Quality.

Legend

  • E = Estimated
  • M = Missing
  • NA = Not Available*
  • [empty] = Indicates an unobserved value
Date modified: